| time (UTC) | temp F | wind direction | speed knots | gust knots | rain 1hr in | rain 24hr in | rain mn in | humidity % | barometer mb |
| 20260504221114 | 84 | 210 | 1.7 | 1.7 | 0.00 | 0.05 | 0.05 | 33 | 1000.8 |
| 20260504220610 | 83 | 237 | 1.7 | 1.7 | 0.00 | 0.05 | 0.05 | 34 | 1001.0 |
| 20260504220108 | 83 | 167 | 3.5 | 5.2 | 0.00 | 0.05 | 0.05 | 35 | 1001.0 |
| 20260504215603 | 84 | 229 | 3.5 | 7.0 | 0.00 | 0.05 | 0.05 | 33 | 1001.1 |
| 20260504215101 | 84 | 299 | 2.6 | 3.5 | 0.00 | 0.05 | 0.05 | 34 | 1001.1 |
| 20260504214557 | 84 | 303 | 1.7 | 3.5 | 0.00 | 0.05 | 0.05 | 34 | 1001.0 |
| 20260504214054 | 85 | 310 | 1.7 | 3.5 | 0.00 | 0.05 | 0.05 | 33 | 1001.0 |
| 20260504213550 | 85 | 173 | 2.6 | 3.5 | 0.00 | 0.05 | 0.05 | 32 | 1001.1 |
| 20260504213047 | 86 | 313 | 0.9 | 0.9 | 0.00 | 0.05 | 0.05 | 32 | 1001.3 |
| 20260504212543 | 87 | 291 | 0.9 | 0.9 | 0.00 | 0.05 | 0.05 | 32 | 1001.2 |
| 20260504212040 | 86 | 301 | 0.0 | 0.9 | 0.00 | 0.05 | 0.05 | 32 | 1001.2 |
| 20260504211537 | 86 | 289 | 0.0 | 0.9 | 0.00 | 0.05 | 0.05 | 32 | 1001.2 |
| 20260504211034 | 84 | 313 | 0.9 | 0.9 | 0.00 | 0.05 | 0.05 | 34 | 1001.1 |
| 20260504210531 | 84 | 230 | 4.3 | 5.2 | 0.00 | 0.05 | 0.05 | 35 | 1001.2 |
| 20260504210028 | 85 | 233 | 4.3 | 6.1 | 0.00 | 0.05 | 0.05 | 34 | 1001.1 |
| 20260504205526 | 84 | 316 | 0.0 | 0.9 | 0.00 | 0.05 | 0.05 | 35 | 1001.1 |
| 20260504205023 | 83 | 274 | 1.7 | 1.7 | 0.00 | 0.05 | 0.05 | 36 | 1001.0 |
| 20260504204521 | 84 | 295 | 3.5 | 6.1 | 0.00 | 0.05 | 0.05 | 34 | 1001.2 |
| 20260504204020 | 83 | 230 | 1.7 | 2.6 | 0.00 | 0.05 | 0.05 | 35 | 1001.2 |
| 20260504203518 | 83 | 188 | 3.5 | 6.1 | 0.00 | 0.05 | 0.05 | 36 | 1001.4 |
| 20260504203015 | 83 | 288 | 1.7 | 1.7 | 0.00 | 0.05 | 0.05 | 37 | 1001.3 |
| 20260504202510 | 84 | 164 | 3.5 | 6.1 | 0.00 | 0.05 | 0.05 | 36 | 1001.6 |
| 20260504202002 | 84 | 322 | 0.0 | 0.9 | 0.00 | 0.05 | 0.05 | 34 | 1001.6 |
| 20260504201459 | 84 | 216 | 2.6 | 3.5 | 0.00 | 0.05 | 0.05 | 34 | 1001.6 |
| 20260504200956 | 83 | 239 | 1.7 | 2.6 | 0.00 | 0.05 | 0.05 | 36 | 1001.5 |
| 20260504200453 | 84 | 218 | 2.6 | 3.5 | 0.00 | 0.05 | 0.05 | 33 | 1001.8 |
| 20260504195950 | 83 | 316 | 1.7 | 1.7 | 0.00 | 0.05 | 0.05 | 36 | 1001.7 |
| 20260504195445 | 84 | 201 | 5.2 | 6.1 | 0.00 | 0.05 | 0.05 | 35 | 1001.6 |
| 20260504194942 | 84 | 155 | 1.7 | 2.6 | 0.00 | 0.05 | 0.05 | 35 | 1001.6 |
| 20260504194438 | 83 | 224 | 0.0 | 0.9 | 0.00 | 0.05 | 0.05 | 36 | 1001.7 |
| 20260504193934 | 83 | 239 | 2.6 | 3.5 | 0.00 | 0.05 | 0.05 | 34 | 1001.6 |
| 20260504193432 | 82 | 226 | 2.6 | 2.6 | 0.00 | 0.05 | 0.05 | 35 | 1001.6 |
| 20260504192931 | 81 | 285 | 2.6 | 2.6 | 0.00 | 0.05 | 0.05 | 39 | 1001.7 |
| 20260504192427 | 82 | 201 | 3.5 | 5.2 | 0.00 | 0.05 | 0.05 | 35 | 1001.7 |
| 20260504191926 | 82 | 199 | 3.5 | 6.1 | 0.00 | 0.05 | 0.05 | 36 | 1001.6 |
| 20260504191424 | 81 | 174 | 4.3 | 6.1 | 0.00 | 0.05 | 0.05 | 38 | 1001.8 |
| 20260504190919 | 82 | 217 | 5.2 | 7.0 | 0.00 | 0.05 | 0.05 | 37 | 1001.9 |
| 20260504190415 | 82 | 246 | 0.0 | 0.9 | 0.00 | 0.05 | 0.05 | 36 | 1001.9 |
| 20260504185912 | 82 | 237 | 2.6 | 3.5 | 0.00 | 0.05 | 0.05 | 35 | 1002.1 |
| 20260504185409 | 83 | 218 | 5.2 | 7.0 | 0.00 | 0.05 | 0.05 | 34 | 1001.8 |
| 20260504184905 | 82 | 290 | 0.9 | 0.9 | 0.00 | 0.05 | 0.05 | 37 | 1001.9 |
| 20260504184401 | 84 | 150 | 3.5 | 5.2 | 0.00 | 0.05 | 0.05 | 33 | 1002.0 |
| 20260504183857 | 84 | 246 | 2.6 | 3.5 | 0.00 | 0.05 | 0.05 | 34 | 1001.9 |
| 20260504183354 | 83 | 241 | 0.9 | 1.7 | 0.00 | 0.05 | 0.05 | 36 | 1001.9 |
| 20260504182851 | 81 | 239 | 1.7 | 2.6 | 0.00 | 0.05 | 0.05 | 37 | 1002.3 |
| 20260504182349 | 81 | 289 | 1.7 | 2.6 | 0.00 | 0.05 | 0.05 | 37 | 1002.1 |
| 20260504181845 | 80 | 265 | 1.7 | 2.6 | 0.00 | 0.05 | 0.05 | 35 | 1002.2 |
| 20260504181343 | 80 | 310 | 1.7 | 2.6 | 0.00 | 0.05 | 0.05 | 37 | 1002.2 |
| 20260504180842 | 81 | 297 | 1.7 | 2.6 | 0.00 | 0.05 | 0.05 | 35 | 1002.1 |
| 20260504180340 | 80 | 282 | 0.9 | 1.7 | 0.00 | 0.05 | 0.05 | 37 | 1002.2 |
| 20260504175838 | 81 | 261 | 3.5 | 6.1 | 0.00 | 0.05 | 0.05 | 36 | 1002.3 |
| 20260504175334 | 81 | 310 | 0.9 | 1.7 | 0.00 | 0.05 | 0.05 | 38 | 1002.2 |
| 20260504174833 | 81 | 269 | 1.7 | 2.6 | 0.00 | 0.05 | 0.05 | 35 | 1002.2 |
| 20260504174330 | 81 | 289 | 0.9 | 1.7 | 0.00 | 0.05 | 0.05 | 36 | 1002.3 |
| 20260504173827 | 80 | 284 | 3.5 | 5.2 | 0.00 | 0.05 | 0.05 | 37 | 1002.3 |
| 20260504173323 | 80 | 265 | 1.7 | 2.6 | 0.00 | 0.05 | 0.05 | 37 | 1002.4 |
| 20260504172820 | 80 | 307 | 0.9 | 1.7 | 0.00 | 0.05 | 0.05 | 37 | 1002.3 |
| 20260504172317 | 80 | 242 | 4.3 | 6.1 | 0.00 | 0.05 | 0.05 | 37 | 1002.5 |
| 20260504171812 | 78 | 276 | 1.7 | 1.7 | 0.00 | 0.05 | 0.05 | 40 | 1002.5 |
| 20260504171310 | 78 | 197 | 4.3 | 5.2 | 0.00 | 0.05 | 0.05 | 39 | 1002.5 |
| 20260504170807 | 79 | 300 | 2.6 | 5.2 | 0.00 | 0.05 | 0.05 | 38 | 1002.7 |
| 20260504170304 | 79 | 215 | 3.5 | 3.5 | 0.00 | 0.05 | 0.05 | 38 | 1002.7 |
| 20260504160222 | 75 | 220 | 5.2 | 6.1 | 0.00 | 0.05 | 0.05 | 41 | 1003.1 |
| 20260504150653 | 73 | 307 | 0.9 | 1.7 | 0.00 | 0.05 | 0.05 | 45 | 1002.9 |
| 20260504150149 | 72 | 264 | 2.6 | 3.5 | 0.00 | 0.05 | 0.05 | 44 | 1003.0 |
| 20260504141119 | 70 | 225 | 2.6 | 3.5 | 0.00 | 0.05 | 0.05 | 51 | 1003.5 |
| 20260504140615 | 70 | 167 | 4.3 | 6.1 | 0.00 | 0.05 | 0.05 | 48 | 1003.4 |
| 20260504140111 | 69 | 207 | 3.5 | 5.2 | 0.00 | 0.05 | 0.05 | 50 | 1003.5 |
| 20260504130539 | 66 | 245 | 3.5 | 6.1 | 0.00 | 0.05 | 0.05 | 55 | 1003.4 |
| 20260504110426 | 57 | 296 | 0.0 | 0.0 | 0.00 | 0.05 | 0.05 | 73 | 1003.7 |
| 20260504100343 | 59 | 270 | 0.9 | 1.7 | 0.00 | 0.05 | 0.05 | 70 | 1004.5 |
| 20260504081737 | 61 | 256 | 2.6 | 3.5 | 0.00 | 0.00 | 0.00 | 61 | 1005.4 |
| 20260504081233 | 61 | 232 | 5.2 | 7.0 | 0.00 | 0.00 | 0.00 | 59 | 1005.3 |
| 20260504080730 | 61 | 242 | 2.6 | 3.5 | 0.00 | 0.00 | 0.00 | 61 | 1005.1 |
| 20260504080226 | 61 | 282 | 0.9 | 1.7 | 0.00 | 0.00 | 0.00 | 62 | 1005.4 |
| 20260504070154 | 60 | 318 | 0.0 | 0.9 | 0.00 | 0.00 | 0.00 | 63 | 1006.9 |
| 20260504060114 | 60 | 316 | 0.0 | 0.0 | 0.00 | 0.00 | 0.00 | 60 | 1007.7 |
| 20260504050542 | 63 | 290 | 0.9 | 0.9 | 0.00 | 0.00 | 0.00 | 55 | 1007.4 |
| 20260504045536 | 63 | 292 | 0.9 | 0.9 | 0.00 | 0.00 | 0.00 | 53 | 1007.4 |
| 20260504045032 | 61 | 8 | 0.9 | 0.9 | 0.00 | 0.00 | 0.00 | 55 | 1007.7 |
| 20260504044529 | 61 | 311 | 0.0 | 0.0 | 0.00 | 0.00 | 0.00 | 59 | 1008.2 |
| 20260504044026 | 61 | 312 | 0.0 | 0.0 | 0.00 | 0.00 | 0.00 | 57 | 1008.3 |
| 20260504043523 | 62 | 317 | 0.0 | 0.9 | 0.00 | 0.00 | 0.00 | 56 | 1008.1 |
| 20260504043021 | 61 | 314 | 0.0 | 0.0 | 0.00 | 0.00 | 0.00 | 55 | 1007.9 |
| 20260504042517 | 61 | 313 | 0.0 | 0.0 | 0.00 | 0.00 | 0.00 | 58 | 1007.8 |
| 20260504042014 | 61 | 313 | 0.0 | 0.0 | 0.00 | 0.00 | 0.00 | 55 | 1008.0 |
| 20260504041510 | 61 | 313 | 0.0 | 0.0 | 0.00 | 0.00 | 0.00 | 57 | 1008.0 |
| 20260504041006 | 62 | 313 | 0.0 | 0.0 | 0.00 | 0.00 | 0.00 | 56 | 1008.1 |
| 20260504040504 | 62 | 313 | 0.0 | 0.0 | 0.00 | 0.00 | 0.00 | 54 | 1008.0 |
| 20260504040000 | 62 | 313 | 0.0 | 0.0 | 0.00 | 0.00 | 0.00 | 53 | 1008.1 |
| 20260504035457 | 63 | 312 | 0.0 | 0.0 | 0.00 | 0.00 | 0.00 | 52 | 1008.2 |
| 20260504034954 | 63 | 326 | 0.0 | 0.0 | 0.00 | 0.00 | 0.00 | 52 | 1008.3 |
| 20260504034451 | 63 | 326 | 0.0 | 0.0 | 0.00 | 0.00 | 0.00 | 52 | 1008.3 |
| 20260504033948 | 63 | 326 | 0.0 | 0.0 | 0.00 | 0.00 | 0.00 | 52 | 1008.4 |
| 20260504033446 | 63 | 325 | 0.0 | 0.0 | 0.00 | 0.00 | 0.00 | 51 | 1008.4 |
| 20260504032943 | 62 | 325 | 0.0 | 0.0 | 0.00 | 0.00 | 0.00 | 52 | 1008.6 |
| 20260504032440 | 62 | 325 | 0.0 | 0.0 | 0.00 | 0.00 | 0.00 | 53 | 1008.6 |
| 20260504031937 | 62 | 325 | 0.0 | 0.0 | 0.00 | 0.00 | 0.00 | 56 | 1008.6 |
| 20260504031434 | 62 | 325 | 0.0 | 0.0 | 0.00 | 0.00 | 0.00 | 54 | 1008.4 |
| 20260504030930 | 63 | 325 | 0.0 | 0.0 | 0.00 | 0.00 | 0.00 | 54 | 1008.4 |
| 20260504030427 | 63 | 325 | 0.0 | 0.0 | 0.00 | 0.00 | 0.00 | 51 | 1008.3 |
| 20260504025923 | 63 | 325 | 0.0 | 0.0 | 0.00 | 0.00 | 0.00 | 51 | 1008.3 |
| 20260504025420 | 63 | 325 | 0.0 | 0.0 | 0.00 | 0.00 | 0.00 | 51 | 1008.2 |
| 20260504024917 | 64 | 325 | 0.0 | 0.0 | 0.00 | 0.00 | 0.00 | 52 | 1008.2 |
| 20260504024414 | 64 | 319 | 0.0 | 0.0 | 0.00 | 0.00 | 0.00 | 51 | 1008.2 |
| 20260504023911 | 64 | 319 | 0.0 | 0.0 | 0.00 | 0.00 | 0.00 | 48 | 1008.2 |
| 20260504023408 | 64 | 319 | 0.0 | 0.0 | 0.00 | 0.00 | 0.00 | 49 | 1008.1 |
| 20260504022903 | 64 | 319 | 0.0 | 0.0 | 0.00 | 0.00 | 0.00 | 48 | 1008.4 |
| 20260504022400 | 65 | 318 | 0.0 | 0.0 | 0.00 | 0.00 | 0.00 | 51 | 1008.2 |
| 20260504021856 | 65 | 318 | 0.0 | 0.0 | 0.00 | 0.00 | 0.00 | 46 | 1008.2 |
| 20260504021354 | 66 | 318 | 0.0 | 0.0 | 0.00 | 0.00 | 0.00 | 46 | 1008.1 |
| 20260504020851 | 66 | 318 | 0.0 | 0.0 | 0.00 | 0.00 | 0.00 | 46 | 1008.2 |
| 20260504020347 | 67 | 318 | 0.0 | 0.0 | 0.00 | 0.00 | 0.00 | 45 | 1008.1 |
| 20260504015844 | 67 | 318 | 0.0 | 0.0 | 0.00 | 0.00 | 0.00 | 44 | 1008.0 |
| 20260504015340 | 67 | 318 | 0.0 | 0.0 | 0.00 | 0.00 | 0.00 | 42 | 1008.1 |
| 20260504014836 | 67 | 318 | 0.0 | 0.0 | 0.00 | 0.00 | 0.00 | 43 | 1008.1 |
| 20260504014332 | 68 | 318 | 0.0 | 0.0 | 0.00 | 0.00 | 0.00 | 44 | 1008.2 |
| 20260504013830 | 68 | 313 | 0.0 | 0.0 | 0.00 | 0.00 | 0.00 | 43 | 1007.9 |
| 20260504013328 | 68 | 313 | 0.0 | 0.0 | 0.00 | 0.00 | 0.00 | 43 | 1008.0 |
| 20260504012824 | 69 | 313 | 0.0 | 0.0 | 0.00 | 0.00 | 0.00 | 43 | 1008.2 |
| 20260504012322 | 69 | 313 | 0.0 | 0.0 | 0.00 | 0.00 | 0.00 | 42 | 1008.1 |
| 20260504011819 | 70 | 313 | 0.0 | 0.0 | 0.00 | 0.00 | 0.00 | 41 | 1008.2 |
| 20260504011316 | 71 | 313 | 0.0 | 0.0 | 0.00 | 0.00 | 0.00 | 40 | 1008.1 |
| 20260504010811 | 72 | 313 | 0.0 | 0.0 | 0.00 | 0.00 | 0.00 | 40 | 1008.0 |
| 20260504010307 | 73 | 313 | 0.0 | 0.0 | 0.00 | 0.00 | 0.00 | 39 | 1008.2 |
| 20260504005804 | 73 | 313 | 0.0 | 0.0 | 0.00 | 0.00 | 0.00 | 37 | 1008.2 |
| 20260504005301 | 74 | 313 | 0.0 | 0.0 | 0.00 | 0.00 | 0.00 | 37 | 1008.4 |
| 20260504004759 | 75 | 313 | 0.0 | 0.0 | 0.00 | 0.00 | 0.00 | 36 | 1008.3 |
| 20260504004256 | 76 | 313 | 0.0 | 0.0 | 0.00 | 0.00 | 0.00 | 35 | 1008.2 |
| 20260504003752 | 76 | 320 | 0.0 | 0.0 | 0.00 | 0.00 | 0.00 | 35 | 1008.1 |
| 20260504003249 | 77 | 324 | 0.0 | 0.9 | 0.00 | 0.00 | 0.00 | 34 | 1008.4 |
| 20260504002746 | 77 | 320 | 0.0 | 0.0 | 0.00 | 0.00 | 0.00 | 33 | 1008.4 |
| 20260504002243 | 78 | 307 | 0.0 | 0.0 | 0.00 | 0.00 | 0.00 | 34 | 1008.3 |
| 20260504001741 | 78 | 316 | 0.0 | 0.0 | 0.00 | 0.00 | 0.00 | 34 | 1008.4 |
| 20260504001237 | 78 | 319 | 0.0 | 0.0 | 0.00 | 0.00 | 0.00 | 34 | 1008.5 |
| 20260504000734 | 79 | 304 | 0.9 | 1.7 | 0.00 | 0.00 | 0.00 | 33 | 1008.4 |
| 20260504000233 | 79 | 305 | 0.0 | 0.0 | 0.00 | 0.00 | 0.00 | 32 | 1008.4 |
| 20260503235729 | 80 | 310 | 0.0 | 0.9 | 0.00 | 0.00 | 0.00 | 30 | 1008.6 |
| 20260503235226 | 81 | 315 | 0.0 | 0.0 | 0.00 | 0.00 | 0.00 | 30 | 1008.5 |
| 20260503234724 | 80 | 316 | 0.0 | 0.0 | 0.00 | 0.00 | 0.00 | 31 | 1008.5 |
| 20260503234222 | 80 | 321 | 0.0 | 0.0 | 0.00 | 0.00 | 0.00 | 30 | 1008.6 |
| 20260503233718 | 80 | 326 | 0.0 | 0.0 | 0.00 | 0.00 | 0.00 | 30 | 1008.7 |
| 20260503233214 | 80 | 315 | 0.0 | 0.0 | 0.00 | 0.00 | 0.00 | 30 | 1008.6 |
| 20260503232711 | 80 | 314 | 0.0 | 0.0 | 0.00 | 0.00 | 0.00 | 30 | 1008.6 |
| 20260503232208 | 81 | 309 | 0.0 | 0.0 | 0.00 | 0.00 | 0.00 | 30 | 1008.7 |
| 20260503231707 | 81 | 304 | 0.0 | 0.0 | 0.00 | 0.00 | 0.00 | 29 | 1008.7 |
| 20260503231203 | 81 | 316 | 0.0 | 0.9 | 0.00 | 0.00 | 0.00 | 29 | 1008.7 |
| 20260503230659 | 82 | 303 | 0.0 | 0.9 | 0.00 | 0.00 | 0.00 | 28 | 1008.8 |
| 20260503230156 | 83 | 300 | 0.0 | 0.9 | 0.00 | 0.00 | 0.00 | 28 | 1008.7 |
| 20260503225654 | 83 | 320 | 0.0 | 0.0 | 0.00 | 0.00 | 0.00 | 27 | 1008.9 |
| 20260503225154 | 84 | 311 | 0.0 | 0.0 | 0.00 | 0.00 | 0.00 | 27 | 1008.8 |
| 20260503224651 | 84 | 314 | 0.0 | 0.0 | 0.00 | 0.00 | 0.00 | 27 | 1008.9 |
| 20260503224149 | 85 | 308 | 0.0 | 0.9 | 0.00 | 0.00 | 0.00 | 27 | 1008.7 |
| 20260503223647 | 84 | 315 | 0.0 | 0.0 | 0.00 | 0.00 | 0.00 | 28 | 1008.8 |
| 20260503223143 | 84 | 334 | 0.0 | 0.9 | 0.00 | 0.00 | 0.00 | 27 | 1008.9 |
| 20260503222640 | 84 | 319 | 0.0 | 0.9 | 0.00 | 0.00 | 0.00 | 26 | 1008.9 |
| 20260503222138 | 83 | 311 | 0.0 | 0.0 | 0.00 | 0.00 | 0.00 | 28 | 1008.7 |
| 20260503221636 | 84 | 327 | 0.0 | 0.0 | 0.00 | 0.00 | 0.00 | 30 | 1008.7 |